sat.trackr.live / text

‹ back to catalog

STARLINK-5415

NORAD 54796 · 2022-175AQ

PAYLOAD ACTIVE UNKNOWN

§ Identity

Operator
Country
US
Launch date
2022-12-17
Launch site
AFETR
Launch vehicle
Mass (kg)
RCS (m²)

Purposes: comms

External: N2YO · Heavens-Above · Gunter

§ Orbital elements

Epoch: 2026-05-25T03:13:43.950144Z

Period
95.44 min
Inclination
53.2141°
Eccentricity
0.0001377
Mean motion
15.08838472 rev/d
Perigee alt
538.8 km
Apogee alt
540.7 km
Semi-major
6,917.9 km
B*
2.9788e-6
RAAN
45.6924°
Arg perigee
71.5925°
Mean anomaly
288.5217°
Rev number
19,167

§ Raw data

STARLINK-54151 54796U 22175AQ  26145.13453646 -.00000241  00000+0  29788-5 0  99942 54796  53.2141  45.6924 0001377  71.5925 288.5217 15.08838472191679

JSON: /api/v1/satellites/54796 · /tle

For live sub-satellite position, see the globe view (requires WebGL).

§ Visibility from observer

Set your observer location to see the next 7 days of passes ≥ 10°. The values pass through the URL so the page stays shareable.

No JS? Fill the form by hand. The geolocation button needs JavaScript.